Time,TemperatureF,DewpointF,PressureIn,WindDirection,WindDirectionDegrees,WindSpeedMPH,WindSpeedGustMPH,Humidity,HourlyPrecipIn,Conditions,Clouds,dailyrainin,SoftwareType,DateUTC
2013-01-02 00:02:00,8.0,-99.9,-100.00,WNW,299,20.0,25.0,-999,-99.99,,,-99.99,,2013-01-02 07:02:00,
2013-01-02 00:12:00,8.0,-99.9,-100.00,WNW,300,20.0,28.0,-999,-99.99,,,-99.99,,2013-01-02 07:12:00,
2013-01-02 00:22:00,8.0,-99.9,-100.00,WNW,300,20.0,28.0,-999,-99.99,,,-99.99,,2013-01-02 07:22:00,
2013-01-02 00:32:00,8.0,-99.9,-100.00,WNW,300,20.0,28.0,-999,-99.99,,,-99.99,,2013-01-02 07:32:00,
2013-01-02 00:42:00,9.0,-99.9,-100.00,NW,307,19.0,24.0,-999,-99.99,,,-99.99,,2013-01-02 07:42:00,
2013-01-02 00:52:00,9.0,-99.9,-100.00,NW,308,21.0,28.0,-999,-99.99,,,-99.99,,2013-01-02 07:52:00,
2013-01-02 01:02:00,9.0,-99.9,-100.00,NW,308,21.0,28.0,-999,-99.99,,,-99.99,,2013-01-02 08:02:00,
2013-01-02 01:12:00,9.0,-99.9,-100.00,NW,311,21.0,25.0,-999,-99.99,,,-99.99,,2013-01-02 08:12:00,
2013-01-02 01:22:00,9.0,-99.9,-100.00,NW,311,21.0,25.0,-999,-99.99,,,-99.99,,2013-01-02 08:22:00,
2013-01-02 01:32:00,9.0,-99.9,-100.00,NW,311,21.0,25.0,-999,-99.99,,,-99.99,,2013-01-02 08:32:00,
2013-01-02 01:42:00,9.0,-99.9,-100.00,NW,307,22.0,29.0,-999,-99.99,,,-99.99,,2013-01-02 08:42:00,
2013-01-02 01:53:00,9.0,-99.9,-100.00,NW,307,22.0,29.0,-999,-99.99,,,-99.99,,2013-01-02 08:53:00,
2013-01-02 02:02:00,9.0,-99.9,-100.00,NW,315,22.0,29.0,-999,-99.99,,,-99.99,,2013-01-02 09:02:00,
2013-01-02 02:12:00,9.0,-99.9,-100.00,NW,316,22.0,30.0,-999,-99.99,,,-99.99,,2013-01-02 09:12:00,
2013-01-02 02:22:00,9.0,-99.9,-100.00,NW,316,22.0,30.0,-999,-99.99,,,-99.99,,2013-01-02 09:22:00,
2013-01-02 02:32:00,9.0,-99.9,-100.00,NW,316,22.0,30.0,-999,-99.99,,,-99.99,,2013-01-02 09:32:00,
2013-01-02 02:43:00,9.0,-99.9,-100.00,NW,317,21.0,29.0,-999,-99.99,,,-99.99,,2013-01-02 09:43:00,
2013-01-02 02:53:00,9.0,-99.9,-100.00,NW,317,21.0,29.0,-999,-99.99,,,-99.99,,2013-01-02 09:53:00,
2013-01-02 03:02:00,9.0,-99.9,-100.00,NW,317,22.0,29.0,-999,-99.99,,,-99.99,,2013-01-02 10:02:00,
2013-01-02 03:12:00,9.0,-99.9,-100.00,NW,320,22.0,31.0,-999,-99.99,,,-99.99,,2013-01-02 10:12:00,
2013-01-02 03:22:00,9.0,-99.9,-100.00,NW,320,22.0,31.0,-999,-99.99,,,-99.99,,2013-01-02 10:22:00,
2013-01-02 03:32:00,9.0,-99.9,-100.00,NW,320,22.0,31.0,-999,-99.99,,,-99.99,,2013-01-02 10:32:00,
2013-01-02 03:43:00,8.0,-99.9,-100.00,NW,312,21.0,26.0,-999,-99.99,,,-99.99,,2013-01-02 10:43:00,
2013-01-02 03:53:00,8.0,-99.9,-100.00,NW,312,21.0,26.0,-999,-99.99,,,-99.99,,2013-01-02 10:53:00,
2013-01-02 04:02:00,8.0,-99.9,-100.00,NW,311,22.0,27.0,-999,-99.99,,,-99.99,,2013-01-02 11:02:00,
2013-01-02 04:12:00,9.0,-99.9,-100.00,NW,308,20.0,26.0,-999,-99.99,,,-99.99,,2013-01-02 11:12:00,
2013-01-02 04:22:00,9.0,-99.9,-100.00,NW,308,20.0,26.0,-999,-99.99,,,-99.99,,2013-01-02 11:22:00,
2013-01-02 04:33:00,9.0,-99.9,-100.00,NW,308,20.0,26.0,-999,-99.99,,,-99.99,,2013-01-02 11:33:00,
2013-01-02 04:43:00,9.0,-99.9,-100.00,NW,309,19.0,29.0,-999,-99.99,,,-99.99,,2013-01-02 11:43:00,
2013-01-02 04:53:00,9.0,-99.9,-100.00,NW,309,19.0,29.0,-999,-99.99,,,-99.99,,2013-01-02 11:53:00,
2013-01-02 05:03:00,9.0,-99.9,-100.00,NW,311,20.0,25.0,-999,-99.99,,,-99.99,,2013-01-02 12:03:00,
2013-01-02 05:12:00,9.0,-99.9,-100.00,NW,307,17.0,26.0,-999,-99.99,,,-99.99,,2013-01-02 12:12:00,
2013-01-02 05:22:00,9.0,-99.9,-100.00,NW,307,17.0,26.0,-999,-99.99,,,-99.99,,2013-01-02 12:22:00,
2013-01-02 05:33:00,9.0,-99.9,-100.00,NW,307,17.0,26.0,-999,-99.99,,,-99.99,,2013-01-02 12:33:00,
2013-01-02 05:43:00,8.0,-99.9,-100.00,WNW,297,16.0,21.0,-999,-99.99,,,-99.99,,2013-01-02 12:43:00,
2013-01-02 05:53:00,8.0,-99.9,-100.00,WNW,298,16.0,20.0,-999,-99.99,,,-99.99,,2013-01-02 12:53:00,
2013-01-02 06:03:00,8.0,-99.9,-100.00,WNW,298,16.0,20.0,-999,-99.99,,,-99.99,,2013-01-02 13:03:00,
2013-01-02 06:13:00,8.0,-99.9,-100.00,NW,306,18.0,23.0,-999,-99.99,,,-99.99,,2013-01-02 13:13:00,
2013-01-02 06:22:00,8.0,-99.9,-100.00,NW,306,18.0,23.0,-999,-99.99,,,-99.99,,2013-01-02 13:22:00,
2013-01-02 06:33:00,8.0,-99.9,-100.00,NW,306,18.0,23.0,-999,-99.99,,,-99.99,,2013-01-02 13:33:00,
2013-01-02 06:43:00,8.0,-99.9,-100.00,NW,305,19.0,25.0,-999,-99.99,,,-99.99,,2013-01-02 13:43:00,
2013-01-02 06:53:00,8.0,-99.9,-100.00,NW,305,19.0,25.0,-999,-99.99,,,-99.99,,2013-01-02 13:53:00,
2013-01-02 07:03:00,8.0,-99.9,-100.00,WNW,294,17.0,23.0,-999,-99.99,,,-99.99,,2013-01-02 14:03:00,
2013-01-02 07:13:00,9.0,-99.9,-100.00,NW,306,21.0,28.0,-999,-99.99,,,-99.99,,2013-01-02 14:13:00,
2013-01-02 07:23:00,9.0,-99.9,-100.00,NW,306,21.0,28.0,-999,-99.99,,,-99.99,,2013-01-02 14:23:00,
2013-01-02 07:33:00,9.0,-99.9,-100.00,NW,306,21.0,28.0,-999,-99.99,,,-99.99,,2013-01-02 14:33:00,
2013-01-02 07:43:00,9.0,-99.9,-100.00,WNW,302,19.0,28.0,-999,-99.99,,,-99.99,,2013-01-02 14:43:00,
2013-01-02 07:53:00,9.0,-99.9,-100.00,WNW,302,19.0,28.0,-999,-99.99,,,-99.99,,2013-01-02 14:53:00,
2013-01-02 08:03:00,8.0,-99.9,-100.00,WNW,298,19.0,29.0,-999,-99.99,,,-99.99,,2013-01-02 15:03:00,
2013-01-02 08:12:00,8.0,-99.9,-100.00,NW,310,20.0,27.0,-999,-99.99,,,-99.99,,2013-01-02 15:12:00,
2013-01-02 08:23:00,8.0,-99.9,-100.00,NW,310,20.0,27.0,-999,-99.99,,,-99.99,,2013-01-02 15:23:00,
2013-01-02 08:33:00,8.0,-99.9,-100.00,NW,310,20.0,27.0,-999,-99.99,,,-99.99,,2013-01-02 15:33:00,
2013-01-02 08:43:00,9.0,-99.9,-100.00,NW,313,19.0,28.0,-999,-99.99,,,-99.99,,2013-01-02 15:43:00,
2013-01-02 08:53:00,9.0,-99.9,-100.00,NW,313,19.0,28.0,-999,-99.99,,,-99.99,,2013-01-02 15:53:00,
2013-01-02 09:03:00,9.0,-99.9,-100.00,NW,311,18.0,25.0,-999,-99.99,,,-99.99,,2013-01-02 16:03:00,
2013-01-02 09:13:00,9.0,-99.9,-100.00,NW,314,19.0,26.0,-999,-99.99,,,-99.99,,2013-01-02 16:13:00,
2013-01-02 09:22:00,9.0,-99.9,-100.00,NW,314,19.0,26.0,-999,-99.99,,,-99.99,,2013-01-02 16:22:00,
2013-01-02 09:33:00,9.0,-99.9,-100.00,NW,314,19.0,26.0,-999,-99.99,,,-99.99,,2013-01-02 16:33:00,
2013-01-02 09:43:00,9.0,-99.9,-100.00,NW,312,16.0,21.0,-999,-99.99,,,-99.99,,2013-01-02 16:43:00,
2013-01-02 09:54:00,9.0,-99.9,-100.00,NW,312,16.0,21.0,-999,-99.99,,,-99.99,,2013-01-02 16:54:00,
2013-01-02 10:04:00,9.0,-99.9,-100.00,NW,308,16.0,21.0,-999,-99.99,,,-99.99,,2013-01-02 17:04:00,
2013-01-02 10:13:00,9.0,-99.9,-100.00,WNW,298,15.0,20.0,-999,-99.99,,,-99.99,,2013-01-02 17:13:00,
2013-01-02 10:23:00,9.0,-99.9,-100.00,WNW,298,15.0,20.0,-999,-99.99,,,-99.99,,2013-01-02 17:23:00,
2013-01-02 10:33:00,9.0,-99.9,-100.00,WNW,298,15.0,20.0,-999,-99.99,,,-99.99,,2013-01-02 17:33:00,
2013-01-02 10:43:00,9.0,-99.9,-100.00,WNW,302,14.0,19.0,-999,-99.99,,,-99.99,,2013-01-02 17:43:00,
2013-01-02 10:54:00,9.0,-99.9,-100.00,WNW,302,14.0,19.0,-999,-99.99,,,-99.99,,2013-01-02 17:54:00,
2013-01-02 11:03:00,10.0,-99.9,-100.00,WNW,300,16.0,26.0,-999,-99.99,,,-99.99,,2013-01-02 18:03:00,
2013-01-02 11:13:00,11.0,-99.9,-100.00,NW,305,14.0,20.0,-999,-99.99,,,-99.99,,2013-01-02 18:13:00,
2013-01-02 11:23:00,11.0,-99.9,-100.00,NW,305,14.0,20.0,-999,-99.99,,,-99.99,,2013-01-02 18:23:00,
2013-01-02 11:33:00,11.0,-99.9,-100.00,NW,305,14.0,20.0,-999,-99.99,,,-99.99,,2013-01-02 18:33:00,
2013-01-02 11:43:00,11.0,-99.9,-100.00,WNW,301,16.0,24.0,-999,-99.99,,,-99.99,,2013-01-02 18:43:00,
2013-01-02 11:54:00,11.0,-99.9,-100.00,WNW,301,16.0,24.0,-999,-99.99,,,-99.99,,2013-01-02 18:54:00,
2013-01-02 12:03:00,12.0,-99.9,-100.00,WNW,300,16.0,22.0,-999,-99.99,,,-99.99,,2013-01-02 19:03:00,
2013-01-02 12:13:00,12.0,-99.9,-100.00,WNW,301,15.0,22.0,-999,-99.99,,,-99.99,,2013-01-02 19:13:00,
2013-01-02 12:23:00,12.0,-99.9,-100.00,WNW,301,15.0,22.0,-999,-99.99,,,-99.99,,2013-01-02 19:23:00,
2013-01-02 12:33:00,12.0,-99.9,-100.00,WNW,301,15.0,22.0,-999,-99.99,,,-99.99,,2013-01-02 19:33:00,
2013-01-02 12:43:00,13.0,-99.9,-100.00,WNW,300,13.0,20.0,-999,-99.99,,,-99.99,,2013-01-02 19:43:00,
2013-01-02 12:53:00,13.0,-99.9,-100.00,WNW,300,13.0,20.0,-999,-99.99,,,-99.99,,2013-01-02 19:53:00,
2013-01-02 13:03:00,13.0,-99.9,-100.00,WNW,297,13.0,21.0,-999,-99.99,,,-99.99,,2013-01-02 20:03:00,
2013-01-02 13:12:00,13.0,-99.9,-100.00,NW,309,12.0,20.0,-999,-99.99,,,-99.99,,2013-01-02 20:12:00,
2013-01-02 13:23:00,13.0,-99.9,-100.00,NW,309,12.0,20.0,-999,-99.99,,,-99.99,,2013-01-02 20:23:00,
2013-01-02 13:33:00,13.0,-99.9,-100.00,NW,309,12.0,20.0,-999,-99.99,,,-99.99,,2013-01-02 20:33:00,
2013-01-02 13:43:00,13.0,-99.9,-100.00,NW,312,14.0,20.0,-999,-99.99,,,-99.99,,2013-01-02 20:43:00,
2013-01-02 13:53:00,13.0,-99.9,-100.00,NW,312,14.0,20.0,-999,-99.99,,,-99.99,,2013-01-02 20:53:00,
2013-01-02 14:03:00,13.0,-99.9,-100.00,NW,310,16.0,24.0,-999,-99.99,,,-99.99,,2013-01-02 21:03:00,
2013-01-02 14:13:00,12.0,-99.9,-100.00,NW,321,17.0,26.0,-999,-99.99,,,-99.99,,2013-01-02 21:13:00,
2013-01-02 14:23:00,12.0,-99.9,-100.00,NW,321,17.0,26.0,-999,-99.99,,,-99.99,,2013-01-02 21:23:00,
2013-01-02 14:33:00,12.0,-99.9,-100.00,NW,321,17.0,26.0,-999,-99.99,,,-99.99,,2013-01-02 21:33:00,
2013-01-02 14:43:00,11.0,-99.9,-100.00,NW,322,20.0,29.0,-999,-99.99,,,-99.99,,2013-01-02 21:43:00,
2013-01-02 14:53:00,11.0,-99.9,-100.00,NW,322,20.0,29.0,-999,-99.99,,,-99.99,,2013-01-02 21:53:00,
2013-01-02 15:03:00,11.0,-99.9,-100.00,NW,325,20.0,26.0,-999,-99.99,,,-99.99,,2013-01-02 22:03:00,
2013-01-02 15:13:00,11.0,-99.9,-100.00,NW,324,21.0,27.0,-999,-99.99,,,-99.99,,2013-01-02 22:13:00,
2013-01-02 15:22:00,11.0,-99.9,-100.00,NW,324,21.0,27.0,-999,-99.99,,,-99.99,,2013-01-02 22:22:00,
2013-01-02 15:33:00,11.0,-99.9,-100.00,NW,324,21.0,27.0,-999,-99.99,,,-99.99,,2013-01-02 22:33:00,
2013-01-02 15:43:00,10.0,-99.9,-100.00,NW,314,18.0,25.0,-999,-99.99,,,-99.99,,2013-01-02 22:43:00,
2013-01-02 15:53:00,10.0,-99.9,-100.00,NW,314,18.0,25.0,-999,-99.99,,,-99.99,,2013-01-02 22:53:00,
2013-01-02 16:03:00,11.0,-99.9,-100.00,NW,313,17.0,27.0,-999,-99.99,,,-99.99,,2013-01-02 23:03:00,
2013-01-02 16:13:00,11.0,-99.9,-100.00,NW,315,19.0,29.0,-999,-99.99,,,-99.99,,2013-01-02 23:13:00,
2013-01-02 16:23:00,11.0,-99.9,-100.00,NW,315,19.0,29.0,-999,-99.99,,,-99.99,,2013-01-02 23:23:00,
2013-01-02 16:33:00,11.0,-99.9,-100.00,NW,315,19.0,29.0,-999,-99.99,,,-99.99,,2013-01-02 23:33:00,
2013-01-02 16:43:00,9.0,-99.9,-100.00,NW,318,20.0,25.0,-999,-99.99,,,-99.99,,2013-01-02 23:43:00,
2013-01-02 16:53:00,9.0,-99.9,-100.00,NW,318,20.0,25.0,-999,-99.99,,,-99.99,,2013-01-02 23:53:00,
2013-01-02 17:03:00,8.0,-99.9,-100.00,NW,324,22.0,28.0,-999,-99.99,,,-99.99,,2013-01-03 00:03:00,
2013-01-02 17:12:00,8.0,-99.9,-100.00,NNW,328,23.0,27.0,-999,-99.99,,,-99.99,,2013-01-03 00:12:00,
2013-01-02 17:23:00,8.0,-99.9,-100.00,NNW,328,23.0,27.0,-999,-99.99,,,-99.99,,2013-01-03 00:23:00,
2013-01-02 17:38:00,8.0,-99.9,-100.00,NNW,328,23.0,27.0,-999,-99.99,,,-99.99,,2013-01-03 00:38:00,
2013-01-02 17:53:00,8.0,-99.9,-100.00,NNW,331,23.0,28.0,-999,-99.99,,,-99.99,,2013-01-03 00:53:00,
2013-01-02 18:03:00,8.0,-99.9,-100.00,NNW,332,24.0,29.0,-999,-99.99,,,-99.99,,2013-01-03 01:03:00,
2013-01-02 18:12:00,8.0,-99.9,-100.00,NNW,334,24.0,30.0,-999,-99.99,,,-99.99,,2013-01-03 01:12:00,
2013-01-02 18:23:00,8.0,-99.9,-100.00,NNW,334,24.0,30.0,-999,-99.99,,,-99.99,,2013-01-03 01:23:00,
2013-01-02 18:33:00,8.0,-99.9,-100.00,NNW,334,24.0,30.0,-999,-99.99,,,-99.99,,2013-01-03 01:33:00,
2013-01-02 18:43:00,8.0,-99.9,-100.00,NNW,337,20.0,25.0,-999,-99.99,,,-99.99,,2013-01-03 01:43:00,
2013-01-02 18:53:00,8.0,-99.9,-100.00,NNW,337,20.0,25.0,-999,-99.99,,,-99.99,,2013-01-03 01:53:00,
2013-01-02 19:02:00,8.0,-99.9,-100.00,NNW,335,22.0,27.0,-999,-99.99,,,-99.99,,2013-01-03 02:02:00,
2013-01-02 19:12:00,7.0,-99.9,-100.00,NNW,329,22.0,27.0,-999,-99.99,,,-99.99,,2013-01-03 02:12:00,
2013-01-02 19:23:00,7.0,-99.9,-100.00,NNW,329,22.0,27.0,-999,-99.99,,,-99.99,,2013-01-03 02:23:00,
2013-01-02 19:33:00,7.0,-99.9,-100.00,NNW,329,22.0,27.0,-999,-99.99,,,-99.99,,2013-01-03 02:33:00,
2013-01-02 19:43:00,7.0,-99.9,-100.00,NNW,329,22.0,27.0,-999,-99.99,,,-99.99,,2013-01-03 02:43:00,
2013-01-02 19:45:00,6.0,-99.9,-100.00,NW,319,23.0,28.0,-999,-99.99,,,-99.99,,2013-01-03 02:45:00,
2013-01-02 20:03:00,6.0,-99.9,-100.00,NW,317,21.0,30.0,-999,-99.99,,,-99.99,,2013-01-03 03:03:00,
2013-01-02 20:12:00,6.0,-99.9,-100.00,NW,319,23.0,28.0,-999,-99.99,,,-99.99,,2013-01-03 03:12:00,
2013-01-02 20:22:00,6.0,-99.9,-100.00,NW,319,23.0,28.0,-999,-99.99,,,-99.99,,2013-01-03 03:22:00,
2013-01-02 20:47:00,7.0,-99.9,-100.00,NW,326,23.0,30.0,-999,-99.99,,,-99.99,,2013-01-03 03:47:00,
2013-01-02 20:53:00,7.0,-99.9,-100.00,NNW,328,21.0,27.0,-999,-99.99,,,-99.99,,2013-01-03 03:53:00,
2013-01-02 21:03:00,7.0,-99.9,-100.00,NNW,328,21.0,27.0,-999,-99.99,,,-99.99,,2013-01-03 04:03:00,
2013-01-02 21:12:00,6.0,-99.9,-100.00,NW,325,21.0,27.0,-999,-99.99,,,-99.99,,2013-01-03 04:12:00,
2013-01-02 21:22:00,6.0,-99.9,-100.00,NW,325,21.0,27.0,-999,-99.99,,,-99.99,,2013-01-03 04:22:00,
2013-01-02 21:33:00,6.0,-99.9,-100.00,NW,325,21.0,27.0,-999,-99.99,,,-99.99,,2013-01-03 04:33:00,
2013-01-02 21:43:00,6.0,-99.9,-100.00,NW,325,18.0,21.0,-999,-99.99,,,-99.99,,2013-01-03 04:43:00,
2013-01-02 21:53:00,6.0,-99.9,-100.00,NW,325,18.0,21.0,-999,-99.99,,,-99.99,,2013-01-03 04:53:00,
2013-01-02 22:04:00,5.0,-99.9,-100.00,NW,324,15.0,19.0,-999,-99.99,,,-99.99,,2013-01-03 05:04:00,
2013-01-02 22:12:00,5.0,-99.9,-100.00,NNW,334,15.0,20.0,-999,-99.99,,,-99.99,,2013-01-03 05:12:00,
2013-01-02 22:23:00,5.0,-99.9,-100.00,NNW,334,15.0,20.0,-999,-99.99,,,-99.99,,2013-01-03 05:23:00,
2013-01-02 22:33:00,5.0,-99.9,-100.00,NNW,334,15.0,20.0,-999,-99.99,,,-99.99,,2013-01-03 05:33:00,
2013-01-02 22:42:00,6.0,-99.9,-100.00,NNW,338,15.0,19.0,-999,-99.99,,,-99.99,,2013-01-03 05:42:00,
2013-01-02 22:53:00,6.0,-99.9,-100.00,NNW,338,15.0,19.0,-999,-99.99,,,-99.99,,2013-01-03 05:53:00,
2013-01-02 23:03:00,7.0,-99.9,-100.00,NNW,347,12.0,17.0,-999,-99.99,,,-99.99,,2013-01-03 06:03:00,
2013-01-02 23:12:00,7.0,-99.9,-100.00,NNW,332,14.0,18.0,-999,-99.99,,,-99.99,,2013-01-03 06:12:00,
2013-01-02 23:22:00,7.0,-99.9,-100.00,NNW,332,14.0,18.0,-999,-99.99,,,-99.99,,2013-01-03 06:22:00,
2013-01-02 23:33:00,7.0,-99.9,-100.00,NNW,332,14.0,18.0,-999,-99.99,,,-99.99,,2013-01-03 06:33:00,
2013-01-02 23:43:00,6.0,-99.9,-100.00,NW,320,14.0,16.0,-999,-99.99,,,-99.99,,2013-01-03 06:43:00,
2013-01-02 23:53:00,6.0,-99.9,-100.00,NW,320,14.0,16.0,-999,-99.99,,,-99.99,,2013-01-03 06:53:00,